[[{"header":{"parameterUnit":"m.s-1","parameterCategory":1,"la1":30.2991,"la2":30.254,"lo1":-89.0895,"lo2":-89.0444,"dy":0.0017,"dx":0.0017,"nx":28,"ny":28,"refTime":"2025-09-19T09:00:00:Z","depth":0,"parameterNumber":2,"parameterNumberName":"U-component_of_WINDS"},"data":[0,0,0,0,0,0,0,0,0,0,0,0,0,0,0,0,0,0,0,0,0,0,0,0,0,0,0,0,0,0,0,0,0,0,0,0,0,0,0,0,0,0,0,0,0,0,0,0,0,0,0,0,0,0,0,0,0,0,0.8214,0.8215,0,0.8319,0.8321,0.8322,0.8276,0.8274,0.8271,0.8269,0.8382,0.8387,0.8392,0,0,0,0,0,0,0,0,0,0,0,0,0,0.7978,0.7982,0.8214,0.8215,0.8217,0.8319,0.8321,0.8322,0.8277,0.8274,0.8271,0.8268,0.838,0.8386,0.8393,0,0,0,0,0,0,0,0,0,0,0,0,0,0.8082,0.7984,0.8214,0.8206,0.8207,0.8319,0.8321,0.8323,0.8278,0.8274,0.827,0.8266,0.8378,0.8386,0.8394,0.8521,0,0,0.8418,0.8422,0,0,0,0,0,0,0,0,0.8076,0.809,0.8206,0.8207,0.8208,0.8281,0.8279,0.8389,0.8278,0.8251,0.8269,0.8264,0.8351,0.8361,0.839,0.8526,0.8531,0.8419,0.8424,0.8427,0.843,0,0,0,0,0,0,0,0.8069,0.8085,0.8256,0.8208,0.8209,0.8199,0.8209,0.8299,0.8322,0.8253,0.825,0.8263,0.8351,0.8382,0.8392,0.8533,0.8419,0.8426,0.8431,0.8434,0.878,0.8784,0,0,0,0,0,0,0.8061,0.808,0.8252,0.8259,0.8131,0.8206,0.8218,0.8261,0.8321,0.8326,0.8266,0.826,0.837,0.8383,0.8396,0.855,0.8427,0.8435,0.844,0.8775,0.8781,0.8785,0,0,0,0,0,0,0.8056,0.8077,0.8248,0.8169,0.819,0.8215,0.8263,0.8265,0.8296,0.833,0.8334,0.8293,0.8368,0.8385,0.849,0.8553,0.8439,0.8446,0.877,0.8777,0.8783,0.8859,0,0,0,0,0,0,0.8049,0.8075,0.8123,0.817,0.8194,0.834,0.8267,0.827,0.831,0.8303,0.8357,0.8362,0.8366,0.8478,0.8498,0.8562,0.8452,0.8765,0.8773,0.8781,0.8851,0.8867,0.8881,0,0,0,0,0,0.8041,0.8141,0.8126,0.8147,0.8254,0.8343,0.8357,0.8358,0.8315,0.8364,0.8386,0.8361,0.8543,0.8489,0.8511,0.8579,0.8761,0.8771,0.878,0.8844,0.8864,0.8881,0,0,0,0,0,0,0.8102,0.8147,0.813,0.8248,0.8292,0.8335,0.8397,0.8379,0.8437,0.8429,0.8429,0.8441,0.8551,0.8575,0.8515,0.8706,0.8645,0.866,0.8686,0.8705,0.872,0.8713,0.8459,0,0,0,0,0,0.8129,0.8197,0.8232,0.8333,0.8356,0.8373,0.8412,0.8408,0.8454,0.8473,0.8503,0.855,0.8617,0.8662,0.8727,0.8853,0.8865,0.8911,0.8926,0.8938,0.8951,0.9021,0.9042,0.8817,0.8817,0.8817,0,0,0.8186,0.8219,0.8262,0.8346,0.838,0.8451,0.8389,0.8467,0.852,0.8486,0.8587,0.861,0.8663,0.8779,0.8832,0.8803,0.9016,0.895,0.896,0.8967,0.9033,0.9055,0.9074,0.8824,0.8823,0.8822,0,0,0.8327,0.8358,0.8445,0.848,0.8531,0.8541,0.8562,0.8609,0.8622,0.8723,0.8699,0.8763,0.8879,0.8918,0.8953,0.9107,0.9087,0.9128,0.9208,0.9276,0.9294,0.931,0.9366,0.9386,0.9141,0.9141,0.9141,0,0.8392,0.8497,0.8493,0.8573,0.8612,0.8581,0.8671,0.8705,0.8775,0.8803,0.8769,0.8914,0.8947,0.9073,0.9111,0.9139,0.9165,0.9123,0.9291,0.9307,0.9322,0.9376,0.9397,0.9146,0.9145,0.9145,0.9144,0,0.8576,0.8649,0.8714,0.8781,0.8826,0.8911,0.892,0.8967,0.8959,0.8974,0.9078,0.9116,0.9188,0.9217,0.9211,0.9343,0.9323,0.929,0.923,0.9348,0.9399,0.942,0.9153,0.9151,0.915,0.9148,0,0,0.876,0.8823,0.8847,0.8877,0.8931,0.8988,0.9071,0.914,0.918,0.9229,0.9301,0.9399,0.9369,0.9408,0.9406,0.9466,0.9587,0.9425,0.9427,0.9456,0.9736,0.9762,0.9786,0.9573,0.9577,0.958,0.9732,0,0.8906,0.9051,0.9049,0.9184,0.9253,0.9224,0.9297,0.9339,0.9354,0.9415,0.9433,0.9503,0.9457,0.9481,0.9538,0.956,0.9644,0.9549,0.9641,0.9644,0.9631,0.9813,0.984,0.9983,0.9752,0.9755,0.9758,0,0.9097,0.9151,0.9292,0.9335,0.9364,0.9429,0.9492,0.955,0.9597,0.9604,0.9648,0.9636,0.9722,0.9658,0.9777,0.9713,0.975,0.9766,0.9772,0.9782,0.971,0.983,1.0028,1.005,0.9789,0.9786,0.9784,0,0.922,0.9327,0.9426,0.9452,0.9505,0.9552,0.9577,0.9619,0.966,0.9716,0.9743,0.9807,0.9844,0.9895,0.9901,0.9853,1.0022,0.9957,1.0032,1.0032,1.0071,1.0069,1.028,1.0092,1.0091,1.0091,1.009,0,0.9384,0.9473,0.9482,0.9543,0.9641,0.9638,0.9736,0.9756,0.9794,0.986,0.9839,0.9901,0.9904,0.9969,0.9974,1.0073,1.0089,1.0099,1.01,1.0102,1.0101,1.0128,1.0119,1.0097,1.0095,1.0094,1.0093,0,0.9539,0.9549,0.9655,0.9695,0.9707,0.9778,0.9814,0.9873,0.9885,0.9968,0.9988,1.0008,1.0083,1.0093,1.0181,1.0184,1.0304,1.0293,1.0288,1.0287,1.0362,1.0355,1.06,1.0632,1.0421,1.0423,1.0424,0,0.9645,0.9712,0.9759,0.9801,0.9827,0.9894,0.9936,0.9936,0.998,1.0038,1.0091,1.0162,1.022,1.034,1.0364,1.0431,1.0423,1.0504,1.0433,1.0433,1.0427,1.0423,1.0431,1.0518,1.0521,1.0523,1.0524,0,0.9832,0.9833,0.9893,0.9955,1.0005,1.0054,1.0101,1.0136,1.0142,1.0193,1.0268,1.0312,1.0401,1.0473,1.0539,1.0565,1.0547,1.0546,1.0567,1.0571,1.0566,1.0571,1.0327,1.0541,1.0539,1.0538,1.0537,1.0536,0.9967,1.0025,1.0067,1.0135,1.017,1.0213,1.027,1.0289,1.0351,1.0423,1.0419,1.0502,1.0547,1.0633,1.0664,1.073,1.0704,1.0734,1.0742,1.075,1.0758,1.0553,1.0741,1.0741,1.0741,1.074,1.074,0,1.0154,1.018,1.0242,1.0307,1.036,1.0335,1.0385,1.0432,1.0505,1.0548,1.0604,1.0691,1.076,1.0789,1.0857,1.0904,1.0898,1.0923,1.092,1.0927,1.0777,1.0752,1.0927,1.0927,1.0927,1.0927,1.0927,1.0927,1.0258,1.0356,1.0362,1.0477,1.0502,1.0582,1.0613,1.0653,1.0687,1.0784,1.0841,1.0859,1.0896,1.0967,1.103,1.1037,1.1064,1.1094,1.1097,1.0956,1.0938,1.092,1.0897,1.1099,1.1099,1.1242,1.1243,1.1244]},{"header":{"parameterUnit":"m.s-1","parameterCategory":1,"la1":30.2991,"la2":30.254,"lo1":-89.0895,"lo2":-89.0444,"dy":0.0017,"dx":0.0017,"nx":28,"ny":28,"refTime":"2025-09-19T09:00:00:Z","depth":0,"parameterNumber":3,"parameterNumberName":"V-component_of_WINDS"},"data":[0,0,0,0,0,0,0,0,0,0,0,0,0,0,0,0,0,0,0,0,0,0,0,0,0,0,0,0,0,0,0,0,0,0,0,0,0,0,0,0,0,0,0,0,0,0,0,0,0,0,0,0,0,0,0,0,0,0,1.1527,1.1527,0,1.1543,1.1543,1.1543,1.1557,1.1557,1.1557,1.1557,1.1571,1.1571,1.1571,0,0,0,0,0,0,0,0,0,0,0,0,0,1.1503,1.1504,1.1527,1.1527,1.1527,1.1543,1.1543,1.1543,1.1557,1.1557,1.1557,1.1557,1.1571,1.1571,1.1572,0,0,0,0,0,0,0,0,0,0,0,0,0,1.1516,1.1504,1.1527,1.1536,1.1537,1.1543,1.1543,1.1544,1.1557,1.1557,1.1557,1.1557,1.1571,1.1571,1.1572,1.1569,0,0,1.1573,1.1573,0,0,0,0,0,0,0,0,1.1515,1.1517,1.1534,1.1535,1.1537,1.1548,1.154,1.1552,1.1557,1.1549,1.1557,1.1558,1.1563,1.1564,1.1567,1.157,1.157,1.1573,1.1573,1.1573,1.1573,0,0,0,0,0,0,0,1.1514,1.1516,1.1533,1.1535,1.1536,1.1538,1.154,1.1542,1.1555,1.155,1.1551,1.1553,1.1564,1.1566,1.1567,1.1571,1.1573,1.1573,1.1573,1.1573,1.1569,1.1569,0,0,0,0,0,0,1.1513,1.1515,1.1533,1.1534,1.1526,1.1538,1.154,1.1544,1.1555,1.1556,1.1553,1.1553,1.1565,1.1567,1.1567,1.1563,1.1573,1.1573,1.1573,1.1569,1.1569,1.1569,0,0,0,0,0,0,1.1512,1.1514,1.1532,1.1525,1.1527,1.1538,1.1542,1.1544,1.1547,1.1557,1.1559,1.1553,1.1566,1.1567,1.1568,1.1564,1.1573,1.1574,1.157,1.1569,1.1569,1.1556,0,0,0,0,0,0,1.1511,1.1514,1.1514,1.1525,1.1528,1.1534,1.1542,1.1545,1.1548,1.1549,1.1558,1.1559,1.1566,1.1567,1.1568,1.1565,1.1574,1.157,1.157,1.1569,1.1557,1.1555,1.1554,0,0,0,0,0,1.151,1.151,1.1514,1.1516,1.1529,1.1534,1.1535,1.1544,1.1548,1.1547,1.1553,1.1559,1.1564,1.1567,1.1569,1.1565,1.157,1.157,1.1569,1.1558,1.1556,1.1554,0,0,0,0,0,0,1.1499,1.1512,1.1516,1.152,1.1525,1.1536,1.1536,1.1542,1.1546,1.1547,1.1556,1.1558,1.1557,1.1561,1.1564,1.1561,1.1568,1.1568,1.1559,1.1557,1.1556,1.1554,1.1574,0,0,0,0,0,1.1496,1.1501,1.1511,1.1513,1.1516,1.1525,1.1528,1.1534,1.154,1.1542,1.1548,1.1552,1.1555,1.1556,1.1559,1.1558,1.1558,1.1555,1.1554,1.1552,1.1552,1.1548,1.1546,1.1566,1.1566,1.1566,0,0,1.1492,1.15,1.1502,1.1511,1.1516,1.1518,1.1527,1.153,1.1531,1.1542,1.1543,1.1547,1.1553,1.1552,1.1552,1.1555,1.1546,1.1551,1.155,1.155,1.1547,1.1545,1.1544,1.1566,1.1566,1.1566,0,0,1.1485,1.1492,1.1493,1.1498,1.1505,1.1511,1.1511,1.152,1.1523,1.1525,1.1532,1.1533,1.1538,1.154,1.1542,1.1533,1.1538,1.1534,1.1525,1.1522,1.152,1.1519,1.1514,1.1512,1.1533,1.1533,1.1533,0,1.1478,1.1484,1.1493,1.1495,1.1497,1.1507,1.1507,1.1511,1.1518,1.1519,1.1523,1.1527,1.1532,1.153,1.1528,1.153,1.1528,1.1533,1.152,1.1519,1.1518,1.1512,1.1511,1.1532,1.1532,1.1532,1.1532,0,1.1474,1.1477,1.1477,1.1484,1.1487,1.1488,1.1495,1.1496,1.1501,1.1506,1.1505,1.1511,1.1514,1.1514,1.1519,1.1512,1.1513,1.1519,1.1525,1.1515,1.151,1.1508,1.1531,1.1531,1.1532,1.1532,0,0,1.1462,1.1472,1.1472,1.1474,1.1482,1.1483,1.1483,1.1487,1.1486,1.1491,1.1489,1.1492,1.1496,1.1498,1.1503,1.15,1.1489,1.1505,1.1505,1.15,1.1479,1.1474,1.1472,1.1492,1.1492,1.1492,1.1478,0,1.1455,1.1457,1.1464,1.1463,1.1464,1.1472,1.1471,1.1474,1.1478,1.1479,1.1482,1.1483,1.1489,1.149,1.1488,1.1491,1.1485,1.1492,1.1489,1.1489,1.1487,1.147,1.1466,1.1453,1.1476,1.1476,1.1476,0,1.1449,1.1452,1.1451,1.1455,1.1456,1.1456,1.1458,1.1459,1.1462,1.1464,1.1465,1.147,1.1468,1.1475,1.1471,1.1475,1.1474,1.1475,1.1475,1.1474,1.1482,1.1468,1.1449,1.1446,1.1474,1.1474,1.1474,0,1.1438,1.1442,1.1441,1.1443,1.1449,1.1448,1.145,1.1453,1.1454,1.1455,1.1454,1.1455,1.1455,1.1455,1.1459,1.1464,1.1453,1.1461,1.1454,1.1453,1.1451,1.1451,1.143,1.1452,1.1452,1.1452,1.1452,0,1.1429,1.1428,1.1436,1.1435,1.1433,1.1439,1.1436,1.1439,1.1441,1.144,1.1446,1.1444,1.145,1.1448,1.1451,1.1446,1.1446,1.1447,1.1447,1.1446,1.1445,1.1445,1.1445,1.1452,1.1452,1.1452,1.1452,0,1.1417,1.1423,1.1422,1.1427,1.1428,1.1426,1.1429,1.1428,1.1431,1.1429,1.1428,1.1433,1.1431,1.1434,1.1433,1.1435,1.1427,1.1429,1.1426,1.1426,1.1418,1.1418,1.1396,1.1392,1.1417,1.1417,1.1417,0,1.1412,1.141,1.1415,1.1414,1.1416,1.1416,1.1416,1.1421,1.142,1.1422,1.1419,1.1417,1.1416,1.1412,1.1414,1.1412,1.1414,1.1406,1.1413,1.1411,1.1411,1.1411,1.1409,1.1404,1.1404,1.1404,1.1403,0,1.14,1.1402,1.1402,1.1402,1.1402,1.1402,1.1403,1.1402,1.1407,1.1406,1.1404,1.1403,1.14,1.1397,1.1395,1.1396,1.1399,1.1401,1.1399,1.1396,1.1394,1.1393,1.142,1.1401,1.1401,1.1402,1.1402,1.1402,1.139,1.1388,1.139,1.1389,1.139,1.1389,1.1387,1.1389,1.1388,1.1387,1.1389,1.1385,1.1385,1.1383,1.1382,1.1378,1.1381,1.1379,1.1378,1.1377,1.1375,1.1395,1.1378,1.1378,1.1378,1.1378,1.1378,0,1.1377,1.1378,1.1377,1.1377,1.1375,1.1379,1.1379,1.1377,1.1374,1.1374,1.1372,1.1368,1.1364,1.1365,1.1361,1.1357,1.1359,1.1356,1.1356,1.1355,1.1373,1.1374,1.1355,1.1355,1.1355,1.1355,1.1355,1.1355,1.137,1.1366,1.1368,1.1363,1.1364,1.1361,1.136,1.1359,1.1358,1.1353,1.135,1.1351,1.135,1.1345,1.1341,1.1341,1.1339,1.1335,1.1336,1.1352,1.1354,1.1357,1.1358,1.1335,1.1335,1.1318,1.1318,1.1318]}]]